CZ-4C DEB

Satellite information

Favourite Embed

Satellite Type and Status

DEBRISIN ORBIT

Key statistics

Satellite CZ-4C DEB at a glance.

Uptime

2756

Days in orbit

Revolutions

≈ 13.4

Per day

Orbit

LEO

Low Earth Orbit

Inclination

63.5

Latest

Satellite identification and parameters

Extended collection of information and parameters for CZ-4C DEB.

Object identification

Identified? True

Debris? True

Object name: CZ-4C DEB

International designator: 2018-034K

Object number (NORAD): 44618

Object ID (CCSDS): 44618

Country: PEOPLES REPUBLIC OF CHINA (PRC)

Current information (Y/N): Y

RCS size: SMALL

Orbital parameters

Period: 107.3 minutes

Inclination: 63.4676 deg

SMA: 7479.856 km

Apoapsis: 1278.883 km

Periapsis: 924.559 km

RAAN: 35.2941 deg

Eccentricy: 0.02368528

Argument of periapsis: 346.8614 deg

Mean anomaly: 12.6309 deg

Mean motion: 13.42032107 rev/day

Mean motion (dot): -0.00000063 rev/day2

B* drag term: 0.000038720406 1/REarth

Two-line elements (TLE)

Creation date: Oct. 25, 2025, 3:11 a.m.

Reference frame: TEME

Reference center: EARTH

Epoch: Oct. 24, 2025, 12:49 p.m. UTC

TLE line 0: 0 CZ-4C DEB

TLE line 1: 1 44618U 18034K 25297.53405701 -.00000063 00000-0 38720-4 0 9993

TLE line 2: 2 44618 63.4676 35.2941 0236853 346.8614 12.6309 13.42032107345220

Live tracking on map

Real-time ground track for satellite CZ-4C DEB.

In-orbit conjunctions

A list of the most updated potential collisions computed for object CZ-4C DEB.

Target Orbit TCA Probability of collision Miss distance Type
OPS 4682 DEB SSO 2025-10-26 06:39:27 0.0001675758 65.0 (m) DEBRIS
FENGYUN 1C DEB SSO 2025-10-06 17:28:34 0.0001177627 99.0 (m) DEBRIS

Associated space launch

CZ-4C DEB was lifted into orbit during the mission ‘Long March 4C | 3 x Yaogan-31-01’, on board a Long March 4C space rocket.

The launch took place on April 10, 2018, 4:25 a.m. from Launch Area 4 (SLS-2 / 603).

For more information about the launch, click the button.

Launch to space Long March 4C | 3 x Yaogan-31-01
Long March 4C | 3 x Yaogan-31-01

Agency: N/A

Status: Launch Successful

Launch date: April 10, 2018, 4:25 a.m. UTC

Rocket: Long March 4C

Launch pad: Launch Area 4 (SLS-2 / 603)

Location: Jiuquan Satellite Launch Center, People's Republic of China

...

Latest news about this satellite

There are no fresh news available about this satellite. Check back as we update our databases every day.


Newsletter sign-up

Weekly statistics, charts and insights to help you stay on top of the space industry.